{"data":{"norad_id":46029,"epoch":"2026-09-19T16:01:58.349280Z","epoch_age_seconds":90076,"freshness":"FRESH","line1":"1 46029U 20055C   26262.66803645  .00001522  00000+0  60816-4 0  9993","line2":"2 46029  53.1604 304.6776 0000887  69.6954 290.4143 15.31694224338607","mean_motion":15.31694224,"eccentricity":8.87e-5,"inclination_deg":53.1604,"raan_deg":304.6776,"arg_perigee_deg":69.6954,"mean_anomaly_deg":290.4143,"bstar":6.0816e-5,"rev_number":33860,"period_min":94.01354248366,"perigee_km":470.14971631848,"apogee_km":471.36471015191,"semimajor_km":6848.8942132352,"source":"CELESTRAK","updated_at":"2026-09-20T09:00:38.459605Z"}}